Flag for Turkey Weather past 2 weeks in Samsun, Turkey

Now
73 °F

Broken clouds.


Feels Like: 76 °F
Forecast: 57 / 76 °F
Wind: 6 mph from East

Location: Samsun / Carsamba

Current Time: May 27, 2015 at 3:31:58 PM

Latest Report: May 27, 2015 at 2:50 PM


Visibility: N/A

Pressure: 29.68 "Hg

Humidity: 69%

Dew point: 63 °F

Location of SamsunLocation

Historic Weather in Samsun — Graph

°F

Samsun temperature yesterday

Maximum temperature yesterday: 73 °F (at 2:50 PM)
Minimum temperature yesterday: 57 °F (at 4:50 AM)
Average temperature yesterday: 67 °F

Past Weeks' High & Low Weather Summary

 TemperatureHumidityPressure
High79 °F (May 15, 11:50 AM)100% (May 14, 3:50 AM)30.12 "Hg (May 14, 3:50 AM)
Low43 °F (May 14, 3:50 AM)23% (May 15, 3:50 PM)29.68 "Hg (May 27, 12:50 PM)
Average64 °F79%29.93 "Hg
* Reported May 12 1:50 PM — May 27 1:50 PM, Samsun, Weather by CustomWeather, © 2015

Note: Actual official high and low records may vary slightly from our data, if they occured in-between our weather recording intervals... More about our weather records

Advertising

Samsun weather history for previous 24 hours

 ConditionsComfort  
Time TempWeatherWind HumidityBarometerVisibility
1:50 PM
Wed, May 27
75 °FBroken clouds.8 mph65%29.68 "HgN/A
12:50 PM75 °FPartly sunny.7 mph61%29.68 "HgN/A
11:50 AM72 °FPartly sunny.7 mph69%29.71 "HgN/A
10:50 AM70 °FPartly sunny.5 mph69%29.74 "HgN/A
9:50 AM68 °FPartly sunny.6 mph73%29.74 "HgN/A
8:50 AM64 °FPartly sunny.5 mph88%29.77 "HgN/A
7:50 AM64 °FPartly sunny.No wind88%29.77 "HgN/A
6:50 AM61 °FScattered clouds.3 mph94%29.77 "Hg4 mi
5:50 AM57 °FFog.2 mph100%29.77 "Hg2 mi
4:50 AM57 °FFog.2 mph94%29.80 "Hg2 mi
3:50 AM57 °FPassing clouds.3 mph94%29.80 "Hg1 mi
2:50 AM59 °FPassing clouds.No wind94%29.80 "Hg1 mi
1:50 AM59 °FFog.3 mph94%29.80 "Hg2 mi
12:50 AM61 °FFog.No wind94%29.83 "Hg2 mi
11:50 PM
Tue, May 26
61 °FPassing clouds.No wind94%29.83 "Hg4 mi
10:50 PM63 °FPassing clouds.1 mph88%29.83 "Hg4 mi
9:50 PM64 °FPartly cloudy.3 mph88%29.83 "HgN/A
8:50 PM66 °FBroken clouds.No wind83%29.83 "HgN/A
7:50 PM70 °FBroken clouds.1 mph69%29.83 "HgN/A
6:50 PM68 °FBroken clouds.6 mph78%29.83 "HgN/A
5:50 PM72 °FBroken clouds.1 mph65%29.86 "HgN/A
4:50 PM73 °FBroken clouds.3 mph61%29.86 "HgN/A
3:50 PM72 °FBroken clouds.7 mph65%29.86 "HgN/A
Weather by CustomWeather, © 2015

See weather overviewHow to use our weather pages